Regional Weather Roundup
Issued by NWS Newport/Morehead, NC

Current Version | Previous Version | Text Only | Print | Product List | Glossary On
Versions: 1 2 3 4 5 6 7 8 9 10 11 12 13 14 15 16 17 18 19 20 21 22 23 24 25 26 27 28 29 30 31 32 33 34 35 36 37 38 39 40 41 42 43 44 45 46 47 48 49 50
000
ASUS42 KMHX 272013
RWRMHX
WEATHER ROUNDUP FOR EASTERN NORTH CAROLINA
NATIONAL WEATHER SERVICE NEWPORT/MOREHEAD CITY NC
400 PM EDT TUE SEP 27 2016

NOTE: "FAIR" INDICATES FEW OR NO CLOUDS BELOW 12,000 FEET
WITH NO SIGNIFICANT WEATHER AND/OR OBSTRUCTIONS TO VISIBILITY

NCZ015>017-031-032-045>047-102-103-272100-
NORTH COAST

CITY           SKY/WX    TMP DP  RH WIND       PRES   REMARKS
EDENTON        PTSUNNY   82  67  60 CALM      29.90F
ELIZABETH CITY PTSUNNY   80  67  64 SW3       29.91R
KITTY HAWK     MOCLDY    82  71  69 E6        29.90S
MANTEO         CLOUDY    79  66  64 S6        29.91F

$$

NCZ045>047-081-094-103-104-272100-
CENTRAL COAST

CITY           SKY/WX    TMP DP  RH WIND       PRES   REMARKS
FRISCO         LGT RAIN  76  67  73 E8        29.91F

$$

NCZ095-097-098-100-101-272100-
SOUTHERN COAST

CITY           SKY/WX    TMP DP  RH WIND       PRES   REMARKS
BEAUFORT       MOSUNNY   79  71  76 E5        29.89F
CEDAR ISLAND   NOT AVBL
JACKSONVILLE   PTSUNNY   78  70  76 SE6       29.89F
PINEY ISLAND   LGT RAIN N/A N/A N/A E6        29.89F
WILMINGTON     PTSUNNY   81  70  69 E7        29.88F


$$

NCZ011>013-027>030-043-044-078>080-089-090>093-098-272100-
COASTAL PLAIN

CITY           SKY/WX    TMP DP  RH WIND       PRES   REMARKS
AHOSKIE        CLOUDY    73  72  98 CALM      29.90F
CLINTON        SUNNY     84  71  65 W3        29.88F
ELIZABETHTOWN  MOSUNNY   85  66  54 SE5       29.87F
GOLDSBORO      PTSUNNY   85  69  60 VRB5      29.86F
GREENVILLE     CLOUDY    82  70  65 E3        29.91S
HAVELOCK       CLOUDY    76  70  82 SE5       29.90F
KENANSVILLE    PTSUNNY   84  68  58 SE6       29.88F
KINSTON        MOSUNNY   84  66  54 SE5       29.89F
NEW BERN       CLOUDY    82  71  69 SE7       29.90F
RICHLANDS      CLOUDY    81  70  69 E6        29.89F
ROCKY MOUNT    CLOUDY    74  73  97 SE3       29.90S
WASHINGTON     MOSUNNY   82  67  60 E5        29.89F
WHITEVILLE     SUNNY     86  66  52 E7        29.87F

$$

AMZ130-135-150-152-154-156-158-170-250-252-270-ANZ085-086-088-633-658-670-272100-
MARINE OBSERVATIONS

STATION/POSITION TIME  TEMP    WIND        PRES    WAVE   SWELL
                       AIR SEA DIR/SP/G            HT/PER HT/PER
                 (UTC) (F)     (DEG/KT/KT) (MB)    (FT/S) (FT/S)
CHESAPEAKE LIGHT NOT AVBL
64 E VA BEACH    1950   74 74  170/  4/  4 1013.0    3/12   3/12
DUCK             1942   78 77  120/ 10/ 11 1012.0
2 E DUCK         1941      77                N/A     3/11   2/11
OREGON INLET     1942   78 76  110/  7/  9 1013.1
13E OREGON INLT  2000      76                N/A     3/ 6   3/13
HATTERAS CG      1942   76 77  100/  8/ 13 1012.7
DIAMOND BUOY     1950   76 84  100/ 14/ 17 1012.3    4/ 6   2/12
CAPE LOOKOUT     2000   78      70/  7/  9 1011.7
BEAUFORT LAB     1942   78 77  100/  6/  7 1011.5
30 SE NEW RVR IN 1908   80 83   60/ 10/ 16 1012.2
30 SE NEW RVR IN 1955      83                N/A     4/ 6   2/13
27 SE WRIGHTSVLE 1908   80 81   50/  6/ 10 1012.3
5 SE WRIGHTSVLE  1908   80 81   70/  6/ 10 1013.3
225 S CAPE HAT   1950   80 83  170/  8/ 10 1011.7    6/ 7   5/ 7
41 SE CHARLESTON 1950   80 83   30/  8/ 10 1011.2    3/ 7   2/ 7

$$




USA.gov is the U.S. government's official web portal to all federal, state and local government web resources and services.